User: anonymous   Login
Location: *
(45.8589°N, 4.7139°E)
Time: 02:18:24
(UTC+00:00)
Language:

IRIDIUM 114 - Orbit

View from above orbital plane
View from above orbital plane
View from above satellite
View from above satellite

Ground track
Ground track

The orbit data is extracted from the following two-line orbital elements,

1 41923U 17003G   20192.50812649 +.00000069 +00000-0 +17645-4 0  9991
2 41923 086.3973 274.2112 0002618 096.2079 263.9415 14.34218824182576
Epoch (UTC): 10 July 2020 12:11:42
Eccentricity: 0.0002618
inclination: 86.3973°
perigee height: 776 km
apogee height: 779 km
right ascension of ascending node: 274.2112°
argument of perigee: 96.2079°
revolutions per day: 14.34218824
mean anomaly at epoch: 263.9415°
orbit number at epoch: 18257

The dashed part of the orbit path shows where the satellite is in the earth's shadow,  

DLR